Location: Nelson
(41.2830°S, 173.2830°E)
Time: 19:09:22
(UTC+13:00)

Envisat - Pass Details

Date: 24 January 2019
Orbit: 764 x 766 km, 98.2° (Epoch: 17 February)

Event Time Altitude Azimuth Distance (km) Brightness Sun altitude
Rises 21:26:32 0° 172° (S) 3,273 6.6 -6.0°
Reaches altitude 10° 21:28:54 10° 175° (S) 2,339 5.9 -6.3°
Maximum altitude 21:33:57 58° 253° (WSW) 905 3.8 -7.1°
Drops below altitude 10° 21:38:57 10° 330° (NNW) 2,310 5.4 -7.9°
Sets 21:41:16 0° 334° (NNW) 3,229 6.1 -8.3°
